Напалково

Россия / Ямало-Ненецкий автономный округ     70°02′51″N   73°46′44″E
темп.,
°C
ветер,
м/с
пор.,
м/с
влажн.,
%
обл.,
%
осадки,
мм/ч
давл.,
гПа
погр.,
м
24 октября, вс
вс2423:00−5в91294100 0.5 985346
02:00−4в91294100 0.7 985349
05:00−4в91194100 1.9 985336
08:00−4в81193100 0.6 985350
11:00−3в81094100 1.3 985328
14:00−4всв7994100 1.1 987301
17:00−5св7794100 2.5 989277
20:00−5ссв5693100 1.1 990293
25 октября, пн
пн2523:00−5с6691100 1.8 992439
02:00−4ссз6790100 0.6 993604
05:00−4сз7887100 1.1 994772
08:00−4сз7784100 0.3 994728
11:00−5зсз7882100 0.5 995807
14:00−4зсз797998 0.1 997727
17:00−4з678396 0.1 997654
20:00−4з7882100 0.1 998756
26 октября, вт
вт2623:00−4з688497 0.1 998676
02:00−4зюз568589 0.1 998468
05:00−4зюз578456 0.1 999449
08:00−4зюз568692 0.0 999509
11:00−3юз5587100 0.1 999561
14:00−4юз6790100 0.4 1000551
17:00−4юз678498 0.8 1000606
20:00−4юз5583100 0.1 1000668
27 октября, ср
ср2723:00−6ююз348999 0.2 1000271
02:00−7ююз118997 0.1 1001179
05:00−6ссв4490100 0.3 1001373
08:00−8ссв558699 0.1 1002567
11:00−9св678797 0.3 1003525
14:00−9св578294 0.1 1005572
17:00−8ссв577290 0.1 1006770
20:00−7ссз3575100 0.1 1007996
28 октября, чт
чт2823:00−6сз7776100 0.4 1007718
02:00−6з777896 0.0 1007467
05:00−6зюз8980100 0.1 1007495
08:00−5зсз6789100 0.9 1006616
11:00−4сз6675100 1.1 1006884
14:00−5ссз666598 0.3 1008929
17:00−6сз67635 0.3 1008904
20:00−6сз676419 0.0 1009989